When you browse on this site, cookies collect data to enhance your experience and personalize the content and advertising you see.
Visit our Privacy Policy to learn more. By continuing to use the site, you agree to this use of cookies and data.
EN

Hourly Weather Potichok

Today, 6 August, Thursday

Time Temperature Precipitation Wind Pressure Humidity
00:00 +21°C° 0 mm 2 mps 740 mmHg 77%
01:00 +21°C° 0 mm 1 mps 740 mmHg 84%
02:00 +15°C° 0 mm 0 mps 741 mmHg 91%
03:00 +17°C° 0 mm 2 mps 741 mmHg 90%
04:00 +16°C° 0 mm 2 mps 741 mmHg 92%
05:00 +16°C° 0 mm 2 mps 741 mmHg 92%
06:00 +16°C° 0 mm 2 mps 741 mmHg 95%
07:00 +17°C° 0 mm 2 mps 742 mmHg 94%
08:00 +19°C° 0 mm 2 mps 742 mmHg 89%
09:00 +22°C° 0 mm 1 mps 743 mmHg 86%
10:00 +23°C° 0 mm 1 mps 743 mmHg 83%
11:00 +25°C° 0 mm 1 mps 743 mmHg 75%
12:00 +27°C° 0 mm 1 mps 743 mmHg 71%
13:00 +29°C° 0 mm 2 mps 743 mmHg 61%
14:00 +30°C° 0 mm 3 mps 743 mmHg 51%
15:00 +30°C° 0 mm 4 mps 743 mmHg 52%
16:00 +30°C° 0 mm 4 mps 743 mmHg 50%
17:00 +30°C° 0 mm 4 mps 743 mmHg 54%
18:00 +29°C° 0 mm 4 mps 743 mmHg 59%
19:00 +27°C° 0 mm 3 mps 743 mmHg 64%
20:00 +25°C° 0 mm 3 mps 743 mmHg 73%
21:00 +24°C° 0 mm 2 mps 743 mmHg 77%
22:00 +24°C° 0 mm 2 mps 743 mmHg 81%
23:00 +23°C° 0 mm 2 mps 743 mmHg 84%

Tomorrow, 7 August, Friday

Time Temperature Precipitation Wind Pressure Humidity
00:00 +21°C° 0 mm 2 mps 743 mmHg 88%
01:00 +21°C° 0 mm 2 mps 744 mmHg 88%
02:00 +20°C° 0 mm 2 mps 744 mmHg 90%
03:00 +19°C° 0 mm 2 mps 744 mmHg 94%
04:00 +20°C° 0 mm 1 mps 743 mmHg 95%
05:00 +19°C° 0 mm 1 mps 743 mmHg 96%
06:00 +19°C° 0 mm 1 mps 743 mmHg 97%
07:00 +20°C° 0 mm 1 mps 744 mmHg 96%
08:00 +22°C° 0 mm 1 mps 744 mmHg 94%
09:00 +23°C° 0 mm 1 mps 745 mmHg 92%
10:00 +25°C° 0 mm 1 mps 745 mmHg 90%
11:00 +26°C° 0 mm 1 mps 745 mmHg 87%
12:00 +27°C° 0 mm 2 mps 745 mmHg 82%
13:00 +28°C° 0 mm 3 mps 744 mmHg 75%
14:00 +28°C° 0 mm 4 mps 744 mmHg 74%
15:00 +29°C° 0 mm 5 mps 744 mmHg 73%
16:00 +28°C° 0 mm 5 mps 744 mmHg 73%
17:00 +28°C° 0 mm 6 mps 743 mmHg 77%
18:00 +27°C° 0 mm 6 mps 743 mmHg 81%
19:00 +26°C° 0 mm 4 mps 744 mmHg 85%
20:00 +23°C° 0 mm 4 mps 744 mmHg 93%
21:00 +24°C° 0 mm 3 mps 744 mmHg 96%
22:00 +22°C° 0 mm 3 mps 744 mmHg 97%
23:00 +21°C° 0 mm 3 mps 744 mmHg 99%

Day after tomorrow, 8 August, Saturday

Time Temperature Precipitation Wind Pressure Humidity
00:00 +20°C° 0 mm 2 mps 744 mmHg 100%
01:00 +21°C° 0 mm 1 mps 744 mmHg 100%
02:00 +21°C° 0 mm 1 mps 744 mmHg 100%
03:00 +20°C° 0 mm 2 mps 744 mmHg 100%
04:00 +20°C° 0 mm 2 mps 744 mmHg 100%
05:00 +20°C° 0 mm 2 mps 744 mmHg 100%
06:00 +19°C° 0 mm 3 mps 744 mmHg 99%
07:00 +19°C° 0 mm 3 mps 744 mmHg 98%
08:00 +20°C° 0 mm 3 mps 744 mmHg 97%
09:00 +20°C° 0 mm 3 mps 744 mmHg 96%
10:00 +21°C° 0 mm 3 mps 744 mmHg 96%
11:00 +22°C° 0 mm 3 mps 744 mmHg 95%
12:00 +22°C° 0 mm 3 mps 744 mmHg 90%
13:00 +24°C° 0 mm 3 mps 744 mmHg 88%
14:00 +24°C° 0 mm 3 mps 744 mmHg 84%
15:00 +25°C° 0 mm 3 mps 743 mmHg 80%
16:00 +25°C° 0 mm 3 mps 743 mmHg 82%
17:00 +25°C° 0 mm 4 mps 743 mmHg 81%
18:00 +24°C° 0 mm 3 mps 743 mmHg 82%
19:00 +24°C° 0 mm 2 mps 743 mmHg 88%
20:00 +23°C° 0 mm 1 mps 743 mmHg 93%
21:00 +22°C° 0 mm 1 mps 743 mmHg 96%
22:00 +20°C° 0 mm 2 mps 743 mmHg 97%
23:00 +19°C° 0 mm 2 mps 743 mmHg 98%

9 August, Sunday

Time Temperature Precipitation Wind Pressure Humidity
00:00 +19°C° 0 mm 2 mps 743 mmHg 98%
01:00 +20°C° 0 mm 1 mps 742 mmHg 98%
02:00 +19°C° 0 mm 1 mps 742 mmHg 100%
03:00 +19°C° 0 mm 1 mps 742 mmHg 100%
04:00 +18°C° 0 mm 1 mps 742 mmHg 100%
05:00 +18°C° 0 mm 1 mps 742 mmHg 100%
06:00 +18°C° 0 mm 1 mps 742 mmHg 100%
07:00 +18°C° 0 mm 1 mps 742 mmHg 100%
08:00 +17°C° 0 mm 0 mps 742 mmHg 100%
09:00 +19°C° 0 mm 0 mps 742 mmHg 97%
10:00 +22°C° 0 mm 1 mps 743 mmHg 94%
11:00 +23°C° 0 mm 2 mps 743 mmHg 87%
12:00 +24°C° 0 mm 1 mps 743 mmHg 85%
13:00 +22°C° 0.6 mm 3 mps 742 mmHg 88%
14:00 +24°C° 0.6 mm 2 mps 742 mmHg 85%
15:00 +25°C° 0.3 mm 3 mps 741 mmHg 86%
16:00 +24°C° 1 mm 3 mps 741 mmHg 88%
17:00 +24°C° 0.1 mm 3 mps 741 mmHg 90%
18:00 +24°C° 0.1 mm 1 mps 741 mmHg 88%
19:00 +24°C° 0.1 mm 1 mps 741 mmHg 92%
20:00 +23°C° 0 mm 1 mps 741 mmHg 93%
21:00 +22°C° 0 mm 1 mps 741 mmHg 96%
22:00 +22°C° 0 mm 1 mps 741 mmHg 96%
23:00 +22°C° 0 mm 1 mps 741 mmHg 95%

10 August, Monday

Time Temperature Precipitation Wind Pressure Humidity
00:00 +21°C° 0 mm 1 mps 741 mmHg 95%
01:00 +19°C° 0 mm 0 mps 741 mmHg 97%
02:00 +20°C° 0 mm 1 mps 741 mmHg 99%
03:00 +20°C° 0 mm 1 mps 740 mmHg 99%
04:00 +20°C° 0 mm 1 mps 740 mmHg 100%
05:00 +20°C° 0 mm 1 mps 740 mmHg 100%
06:00 +20°C° 0 mm 1 mps 740 mmHg 100%
07:00 +20°C° 0 mm 1 mps 741 mmHg 100%
08:00 +21°C° 0 mm 1 mps 741 mmHg 97%
09:00 +21°C° 0 mm 2 mps 741 mmHg 97%
10:00 +21°C° 0 mm 2 mps 741 mmHg 96%
11:00 +22°C° 0 mm 3 mps 741 mmHg 95%
12:00 +24°C° 0 mm 3 mps 741 mmHg 89%
13:00 +25°C° 0 mm 2 mps 740 mmHg 87%
14:00 +25°C° 0 mm 3 mps 740 mmHg 87%
15:00 +25°C° 0 mm 3 mps 740 mmHg 83%
16:00 +26°C° 0 mm 3 mps 739 mmHg 84%
17:00 +26°C° 0 mm 3 mps 739 mmHg 84%
18:00 +25°C° 0 mm 3 mps 739 mmHg 86%
19:00 +25°C° 0 mm 2 mps 739 mmHg 91%
20:00 +23°C° 0 mm 1 mps 740 mmHg 94%
21:00 +23°C° 0 mm 2 mps 740 mmHg 97%
22:00 +21°C° 0 mm 2 mps 740 mmHg 99%
23:00 +20°C° 0 mm 2 mps 740 mmHg 99%

11 August, Tuesday

Time Temperature Precipitation Wind Pressure Humidity
00:00 +20°C° 0 mm 2 mps 740 mmHg 100%
01:00 +20°C° 0 mm 2 mps 740 mmHg 100%
02:00 +19°C° 0 mm 2 mps 740 mmHg 100%
03:00 +20°C° 0 mm 1 mps 740 mmHg 100%
04:00 +20°C° 0 mm 1 mps 740 mmHg 100%
05:00 +19°C° 0 mm 2 mps 740 mmHg 99%
06:00 +19°C° 0 mm 2 mps 740 mmHg 98%
07:00 +19°C° 0 mm 2 mps 740 mmHg 96%
08:00 +19°C° 0 mm 2 mps 740 mmHg 97%
09:00 +19°C° 0 mm 2 mps 741 mmHg 96%
10:00 +19°C° 0 mm 3 mps 741 mmHg 96%
11:00 +20°C° 0 mm 3 mps 741 mmHg 94%
12:00 +21°C° 0 mm 3 mps 741 mmHg 93%
13:00 +21°C° 0 mm 2 mps 741 mmHg 91%
14:00 +24°C° 0 mm 1 mps 740 mmHg 88%
15:00 +24°C° 0 mm 2 mps 740 mmHg 88%
16:00 +24°C° 0 mm 3 mps 740 mmHg 89%
17:00 +24°C° 0 mm 2 mps 740 mmHg 89%
18:00 +24°C° 0.3 mm 3 mps 740 mmHg 92%
19:00 +23°C° 0.1 mm 2 mps 739 mmHg 95%
20:00 +23°C° 0 mm 1 mps 739 mmHg 95%
21:00 +22°C° 0 mm 1 mps 740 mmHg 94%
22:00 +22°C° 0.3 mm 1 mps 740 mmHg 99%
23:00 +21°C° 0.1 mm 1 mps 740 mmHg 99%
Show more